SCP
0 0 0 0 0 0 -0 -0 -0 -0 -0 -0 0 0 0 0 -0 -0 -0 0 -0 -0 -0 -0 -0 0 -0 -0 -0 0 0 0 -0 0 0 -0 0 -0 -0 0 -0 0 -0 -0 0
-0 0 0 0 0 0 0 0 -0 -0 -0 -0 -0 0 0 0 0 0 -0 -0 -0 -0 -0 -0 0 -0 -0 -0 -0 0 0 0 -0 -0 0 -0 -0 -0 -0 -0 -0 -0 -0 -0 -0
-0 -0 0 0 0 0 0 0 0 -0 -0 -0 -0 0 0 0 0 0 0 -0 -0 -0 0 0 -0 -0 -0 -0 -0 0 -0 -0 0 0 0 0 -0 0 -0 -0 -0 -0 -0 -1 -0
-0 -0 -0 -0 0 0 0 0 0 0 0 0 -0 0 0 -0 0 -0 0 0 -0 0 0 0 -0 -0 -0 -0 0 -0 -0 -0 -0 0 0 0 0 0 -0 -0 -0 -0 -1 -0 -0
-0 -0 -0 -0 -0 0 0 0 0 0 0 0 -0 -0 -0 0 -0 -0 0 -0 -0 -0 0 0 -0 -0 0 0 0 0 -0 0 -0 0 0 0 0 -0 -0 -0 -0 -0 -0 -0 -0
-0 -0 -0 -0 -0 -0 0 0 0 0 0 0 -0 0 -0 0 0 -0 -0 0 -0 0 0 0 0 0 0 0 0 0 -0 -0 -0 -0 -0 -0 -0 -0 -0 -0 -0 -0 -0 -0 -0
-0 -0 -0 -0 -0 -0 -0 0 0 0 0 -0 -0 0 0 -0 0 0 0 -0 0 -0 -0 0 0 0 0 0 0 -0 -0 -0 -0 -0 0 -0 -0 -0 -0 -0 -0 -0 -0 -0 -0
-0 0 0 -0 -0 -0 -0 -0 0 0 -0 -0 0 0 0 0 0 0 0 0 0 0 0 0 0 0 0 0 0 0 0 -0 -0 -0 0 -0 0 -0 -0 -0 -0 -0 -0 -0 -0
-0 -0 -0 0 0 0 0 -0 -0 -0 -0 -0 0 0 0 0 0 0 0 0 0 0 0 0 0 0 0 0 0 0 0 0 -0 -0 -0 -0 0 -0 -0 -0 -0 -0 -0 -0 -0
-0 -0 -0 -0 0 0 0 0 -0 0 0 -0 -0 0 0 0 -0 0 0 0 0 0 0 0 0 -0 -0 0 -0 -0 0 -0 -0 -0 0 -0 -0 -0 -0 -0 -0 -0 -0 -0 -0
0 0 0 0 0 0 -0 0 0 0 0 0 0 0 0 0 0 0 0 0 0 0 0 0 -0 -0 0 0 0 0 0 -0 -0 -0 0 -0 -0 -0 -0 0 -0 -0 -0 -0 -0
0 0 0 0 0 0 -0 0 0 0 -0 -0 -0 0 0 0 0 0 0 0 0 0 0 0 -0 -0 0 0 0 -0 -0 0 0 -0 0 0 -0 -0 -0 -0 -0 -0 -0 -0 -0
0 0 0 0 0 0 0 0 0 0 0 0 0 0 0 0 0 0 0 0 0 0 0 0 0 0 0 -0 -0 -0 -0 0 -0 0 0 0 0 0 -0 -0 -0 -0 -0 -0 -0
0 0 0 0 0 0 0 0 0 0 -0 0 0 0 0 0 0 0 0 0 0 0 0 0 0 0 0 -0 0 0 0 -0 0 0 0 0 0 0 0 -0 -0 -0 0 0 -0
0 0 0 0 0 0 0 0 0 0 0 -0 -0 0 0 0 0 0 0 0 0 0 0 0 0 0 0 0 0 0 0 0 0 0 0 0 0 0 0 0 -0 -0 -0 -0 -0
0 0 0 0 0 0 0 0 0 0 0 0 0 -0 0 0 0 0 0 0 0 0 0 0 0 0 0 0 0 0 0 0 0 0 0 0 0 0 0 -0 -0 0 0 -0 -0
0 0 0 0 0 0 0 0 0 0 0 0 0 0 -0 0 0 0 0 0 0 0 0 0 0 0 0 0 0 0 0 0 0 0 0 0 0 0 0 0 0 0 -0 -0 -0
0 0 0 0 0 0 0 0 0 0 -0 0 0 0 0 0 0 0 0 0 0 0 0 0 0 0 0 0 0 0 0 0 0 0 0 0 0 0 -0 -0 -0 0 -0 -0 -0
0 0 0 0 0 0 0 0 0 0 0 0 -0 0 0 0 0 -0 0 0 0 0 0 0 0 0 0 0 0 0 0 0 0 0 0 0 0 0 0 0 0 0 0 -0 -0
-0 0 0 0 0 0 0 0 0 0 0 0 -0 0 0 0 0 0 0 0 0 0 0 0 0 0 0 0 0 0 0 0 0 0 0 0 0 0 0 0 0 0 0 0 0
0 0 0 0 0 0 0 0 0 0 0 0 -0 -0 0 0 0 0 0 0 0 0 0 0 0 0 -0 -0 0 0 0 0 0 0 0 0 -0 0 0 0 -0 -0 -0 0 0
0 0 0 0 0 0 0 0 0 -0 0 0 -0 0 0 0 0 -0 0 -0 -0 0 0 0 0 0 0 0 0 0 0 0 0 0 0 0 0 0 0 0 0 -0 0 0 0
0 0 0 0 0 0 0 0 0 0 0 0 0 0 0 0 0 -0 0 0 0 -0 0 0 0 0 0 0 0 0 0 0 0 0 0 0 0 0 0 0 0 0 -0 -0 0
0 0 0 0 0 0 0 0 0 -0 0 0 0 0 0 0 0 -0 0 0 0 0 -0 0 0 0 0 0 0 0 0 0 0 0 0 0 0 0 0 0 0 0 0 0 0
0 0 0 0 0 0 0 0 0 -0 -0 -0 0 -0 -0 -0 -0 -0 0 0 0 0 0 0 0 0 0 0 0 0 0 0 0 0 0 0 0 0 0 0 0 0 0 0 0
0 0 0 0 0 0 0 0 0 0 0 0 0 0 -0 -0 0 -0 0 0 0 0 0 0 0 0 0 0 0 0 0 0 0 0 0 0 0 0 0 0 0 0 0 0 0
0 0 0 0 0 0 0 0 0 0 0 0 0 0 -0 0 0 0 0 0 0 0 0 0 0 0 0 0 0 0 0 0 0 0 0 0 0 0 0 0 0 0 0 0 0
Wind_Speed_500mb
36 37 39 38 38 36 36 38 35 35 39 44 42 42 40 38 38 43 52 42 30 29 28 26 27 20 12 14 18 25 9 6 10 15 6 29 25 44 30 59 38 14 61 71 69
36 37 38 41 40 39 37 38 38 36 38 42 42 43 40 36 37 51 41 39 32 34 27 23 25 16 12 21 17 16 10 22 13 10 14 28 49 43 26 44 39 56 65 68 72
37 37 39 40 41 41 40 38 40 39 39 42 40 43 38 35 37 16 10 25 39 40 32 26 25 24 11 24 29 21 21 18 26 22 43 30 27 30 52 29 78 68 73 79 76
38 38 39 41 43 42 41 41 40 42 41 43 40 42 36 29 10 4 10 14 43 38 36 35 29 6 7 6 14 11 31 53 27 48 45 21 33 17 31 36 67 80 75 84 81
39 40 39 41 42 45 43 41 42 41 44 45 43 41 33 21 42 19 5 9 38 43 46 36 16 11 8 7 17 32 26 46 54 49 39 35 23 26 43 69 70 72 74 75 73
41 41 41 40 43 44 46 44 44 44 44 44 45 39 24 12 11 16 7 15 33 47 44 37 15 9 22 13 7 39 66 60 62 53 42 41 37 23 54 69 68 67 63 70 64
43 42 43 42 42 45 45 45 48 47 49 45 43 38 31 55 21 12 16 14 27 43 43 37 36 30 8 21 27 74 40 27 34 38 16 56 14 21 63 68 64 61 58 57 52
49 46 44 44 43 45 46 45 48 51 49 49 35 31 25 31 16 23 17 16 33 39 37 29 27 34 32 36 16 16 27 15 14 34 31 25 11 26 69 65 56 60 63 61 57
49 50 47 45 45 45 46 44 47 51 46 27 15 15 28 12 22 25 29 16 28 37 31 26 29 39 27 3 10 10 17 24 13 12 18 12 16 35 65 62 58 59 61 66 65
49 52 50 44 45 48 44 42 45 32 9 14 11 13 22 10 20 36 25 21 22 33 30 28 16 4 7 9 9 10 14 34 28 21 7 22 17 39 57 58 58 60 60 61 72
50 50 53 49 42 47 44 40 23 7 34 34 48 47 69 59 30 40 34 38 33 20 11 11 5 12 18 16 11 10 14 24 20 22 16 33 25 38 52 49 48 53 60 62 70
52 52 51 49 44 42 38 21 25 29 32 59 63 69 77 66 34 38 45 30 22 14 9 7 14 21 13 9 11 9 13 16 5 25 14 26 35 37 47 57 61 59 60 68 62
52 52 53 47 45 36 23 17 26 43 13 50 73 69 78 42 54 57 59 59 10 13 13 14 15 14 10 17 9 12 15 18 20 12 13 23 3 16 30 44 49 55 77 79 74
50 49 51 50 27 20 34 12 29 26 7 18 12 28 55 43 18 53 60 50 13 28 11 13 24 15 17 17 13 16 20 29 17 32 14 15 11 13 35 31 26 47 63 77 80
49 47 46 44 46 36 28 18 15 8 8 10 12 10 47 30 12 36 71 52 22 14 15 19 20 21 19 31 14 26 16 24 22 32 14 6 10 19 16 17 22 42 74 84 88
50 46 49 40 48 25 7 9 2 9 15 13 11 12 15 22 23 43 60 64 32 11 8 20 33 16 22 34 18 28 10 12 10 9 4 22 13 8 21 51 41 36 64 74 86
56 47 50 47 43 22 27 18 8 8 10 13 9 11 21 15 19 13 34 26 30 13 17 8 34 21 22 13 15 8 12 4 4 2 12 16 15 23 42 49 37 45 70 82 91
63 49 47 48 38 29 17 7 10 20 31 12 20 29 8 6 18 20 16 26 22 10 6 18 24 31 12 21 22 16 20 13 13 6 10 16 14 22 34 73 67 67 87 87 85
64 52 50 36 25 31 24 7 18 14 6 7 14 14 9 6 6 22 22 33 34 22 28 12 16 16 22 23 22 18 8 20 15 2 7 7 15 13 13 32 43 55 64 77 84
66 58 37 12 28 44 5 14 14 8 15 17 3 8 16 11 13 20 23 27 34 27 18 16 9 16 29 12 13 30 15 6 7 13 8 9 9 12 9 24 25 28 52 75 80
48 29 13 14 37 27 8 15 13 26 37 9 9 18 26 32 27 22 31 25 48 40 24 24 10 27 3 12 21 4 6 9 12 11 12 6 13 14 30 33 35 36 61 63 84
21 8 24 45 9 9 6 10 11 18 39 20 15 30 26 35 43 35 44 35 66 48 24 20 14 27 36 24 16 17 19 14 12 9 3 11 13 11 26 26 45 49 64 71 88
41 19 27 33 6 7 12 17 18 19 21 14 18 30 29 31 32 20 16 22 41 52 40 22 12 16 17 13 5 14 12 13 11 9 14 12 11 3 8 7 39 48 58 61 67
14 8 10 12 24 2 10 14 18 24 22 30 38 43 31 32 17 10 12 12 22 53 82 35 12 21 27 17 10 13 14 15 16 11 12 12 10 7 12 19 18 53 63 57 56
10 9 10 8 7 17 5 11 24 27 19 18 20 7 14 16 12 7 10 14 4 31 43 24 19 14 19 37 19 28 23 18 12 18 18 16 22 20 22 25 42 64 57 52 58
12 11 16 19 30 10 10 5 17 27 13 11 8 16 20 6 12 6 4 6 6 17 15 13 14 19 32 15 17 14 18 27 13 10 3 12 13 21 42 48 44 65 67 62 55
15 18 9 16 11 9 2 17 30 34 11 6 6 8 6 11 41 33 35 19 16 9 9 21 14 10 17 14 13 8 4 13 6 9 12 13 23 19 11 16 40 47 50 46 34
Wind_Direction_500mb
338 338 338 339 339 341 338 336 334 334 333 333 329 326 322 307 294 282 267 253 256 237 236 241 262 270 276 268 211 144 100 237 224 163 193 165 126 150 137 137 154 197 155 149 153
335 334 333 334 336 336 336 334 331 331 331 332 330 328 326 317 299 280 280 255 235 219 228 236 249 242 262 248 203 178 138 199 231 179 145 143 135 143 133 148 120 125 139 156 159
331 331 330 329 331 332 332 332 330 327 327 330 326 328 321 322 312 288 264 227 202 207 218 230 243 265 241 237 230 219 224 160 205 148 134 122 120 131 136 143 146 152 152 161 163
326 327 327 326 326 328 328 327 327 324 324 327 323 324 317 317 282 248 2 204 188 196 210 226 245 226 265 276 265 139 213 153 180 149 139 157 125 102 156 159 153 148 156 162 165
322 323 323 322 322 323 324 323 322 321 321 324 321 320 316 293 268 237 12 182 183 194 209 222 246 246 241 262 336 204 120 160 153 146 136 135 101 108 122 143 148 148 154 161 165
321 320 320 320 318 318 320 321 318 318 317 320 320 313 305 277 316 214 195 200 200 200 211 216 214 227 286 275 27 143 139 149 142 133 130 118 132 104 139 144 151 156 160 173 177
323 322 319 318 317 314 315 318 315 315 313 312 313 301 286 272 286 228 199 229 223 215 217 221 227 254 297 326 358 141 132 130 150 150 130 105 79 127 150 151 153 162 169 174 174
322 322 320 319 316 312 311 315 312 312 311 305 299 287 268 294 215 197 207 220 219 224 231 228 236 272 272 281 309 141 122 135 216 143 159 104 147 135 151 153 161 166 174 178 185
323 320 319 319 318 312 309 314 312 311 309 311 283 268 270 254 227 203 208 209 210 217 223 234 266 264 272 99 358 322 153 138 161 239 139 110 143 165 160 160 166 177 183 184 189
321 320 316 317 319 313 309 316 314 309 315 346 263 296 260 227 260 200 209 210 213 205 236 248 241 166 41 89 229 226 109 162 170 177 109 139 172 167 173 171 176 182 188 189 193
320 318 315 316 317 314 313 326 340 317 317 284 278 266 280 279 306 218 197 204 214 209 183 233 123 216 233 198 208 217 133 175 195 152 126 158 161 176 177 183 191 188 191 193 195
320 317 314 313 314 310 306 308 355 316 301 287 279 276 271 273 281 260 196 211 194 196 173 303 215 228 227 212 231 234 201 198 217 164 116 167 172 181 181 195 193 189 187 185 187
319 318 315 312 313 306 292 310 324 327 256 279 260 249 252 250 242 253 201 211 151 192 201 184 239 227 218 267 280 285 203 199 186 146 69 128 179 189 204 201 204 199 189 185 188
318 318 317 315 311 304 312 275 313 320 322 283 231 239 229 225 266 230 214 206 206 200 193 199 245 238 232 244 179 268 215 220 161 160 159 176 206 243 197 198 202 190 186 188 191
316 316 316 316 300 301 308 306 305 320 322 252 237 265 196 170 233 206 192 198 200 178 138 228 216 225 237 237 176 241 214 199 168 176 110 185 104 213 137 213 212 199 197 194 198
314 313 309 306 289 314 342 318 203 46 254 289 201 177 112 170 231 176 186 205 218 186 209 211 247 182 221 248 218 245 254 52 55 96 133 205 154 249 188 209 210 216 202 197 200
310 311 301 290 281 283 302 322 62 175 306 273 33 22 177 170 222 167 183 193 205 167 218 294 237 244 213 237 273 168 67 305 342 120 205 192 190 234 207 217 204 198 198 200 204
311 311 295 277 277 259 244 72 208 226 227 279 344 327 267 174 220 217 174 197 222 134 168 216 251 225 214 189 221 210 158 158 200 250 251 141 212 246 200 207 205 200 197 200 198
316 315 296 286 247 214 193 181 205 204 232 323 11 305 260 252 226 210 183 206 211 176 206 172 245 262 223 221 166 237 147 188 138 70 68 259 299 329 205 195 185 187 189 196 198
326 322 307 300 203 183 135 234 227 205 323 329 185 243 281 291 319 209 203 195 207 194 168 219 271 242 253 192 248 190 174 96 0 164 202 281 259 230 199 181 194 189 187 193 197
329 320 301 288 169 169 200 231 267 267 285 258 233 268 274 288 281 277 222 219 196 209 166 195 142 262 55 213 208 78 128 62 121 138 162 224 268 217 199 184 186 200 208 190 195
349 319 319 165 133 194 217 228 238 264 285 288 284 266 269 294 300 274 219 201 194 203 198 196 175 236 248 249 229 164 172 147 139 228 153 159 264 263 183 184 183 202 208 207 201
329 281 205 213 258 256 276 272 268 268 251 254 256 266 277 281 284 239 206 217 223 198 201 195 209 236 303 331 357 162 165 141 108 91 184 140 255 138 53 125 180 185 207 212 213
308 318 309 216 278 342 5 287 285 286 270 280 283 276 288 275 256 279 277 264 209 203 205 175 146 194 224 214 183 194 162 161 142 142 173 203 188 162 183 178 186 183 174 184 193
244 252 5 318 312 324 260 270 293 307 285 277 293 46 342 274 290 329 324 324 283 218 211 160 181 155 213 223 211 203 184 160 153 181 168 217 183 208 192 181 181 177 176 180 188
309 356 334 294 288 289 273 282 324 308 258 278 260 351 346 354 320 315 342 333 307 328 234 177 216 153 227 229 212 163 210 161 153 132 72 160 213 196 197 176 176 178 182 185 199
316 307 320 285 306 316 21 330 308 316 317 51 321 332 17 320 309 272 269 255 243 279 299 153 140 119 214 158 117 74 119 215 244 73 200 169 220 160 163 185 174 172 172 161 158
Wind_Speed_850mb
36 37 39 38 38 36 36 38 35 35 39 44 42 42 40 38 38 43 52 42 30 29 28 26 27 20 12 14 18 25 9 6 10 15 6 29 25 44 30 59 38 14 61 71 69
36 37 38 41 40 39 37 38 38 36 38 42 42 43 40 36 37 51 41 39 32 34 27 23 25 16 12 21 17 16 10 22 13 10 14 28 49 43 26 44 39 56 65 68 72
37 37 39 40 41 41 40 38 40 39 39 42 40 43 38 35 37 16 10 25 39 40 32 26 25 24 11 24 29 21 21 18 26 22 43 30 27 30 52 29 78 68 73 79 76
38 38 39 41 43 42 41 41 40 42 41 43 40 42 36 29 10 4 10 14 43 38 36 35 29 6 7 6 14 11 31 53 27 48 45 21 33 17 31 36 67 80 75 84 81
39 40 39 41 42 45 43 41 42 41 44 45 43 41 33 21 42 19 5 9 38 43 46 36 16 11 8 7 17 32 26 46 54 49 39 35 23 26 43 69 70 72 74 75 73
41 41 41 40 43 44 46 44 44 44 44 44 45 39 24 12 11 16 7 15 33 47 44 37 15 9 22 13 7 39 66 60 62 53 42 41 37 23 54 69 68 67 63 70 64
43 42 43 42 42 45 45 45 48 47 49 45 43 38 31 55 21 12 16 14 27 43 43 37 36 30 8 21 27 74 40 27 34 38 16 56 14 21 63 68 64 61 58 57 52
49 46 44 44 43 45 46 45 48 51 49 49 35 31 25 31 16 23 17 16 33 39 37 29 27 34 32 36 16 16 27 15 14 34 31 25 11 26 69 65 56 60 63 61 57
49 50 47 45 45 45 46 44 47 51 46 27 15 15 28 12 22 25 29 16 28 37 31 26 29 39 27 3 10 10 17 24 13 12 18 12 16 35 65 62 58 59 61 66 65
49 52 50 44 45 48 44 42 45 32 9 14 11 13 22 10 20 36 25 21 22 33 30 28 16 4 7 9 9 10 14 34 28 21 7 22 17 39 57 58 58 60 60 61 72
50 50 53 49 42 47 44 40 23 7 34 34 48 47 69 59 30 40 34 38 33 20 11 11 5 12 18 16 11 10 14 24 20 22 16 33 25 38 52 49 48 53 60 62 70
52 52 51 49 44 42 38 21 25 29 32 59 63 69 77 66 34 38 45 30 22 14 9 7 14 21 13 9 11 9 13 16 5 25 14 26 35 37 47 57 61 59 60 68 62
52 52 53 47 45 36 23 17 26 43 13 50 73 69 78 42 54 57 59 59 10 13 13 14 15 14 10 17 9 12 15 18 20 12 13 23 3 16 30 44 49 55 77 79 74
50 49 51 50 27 20 34 12 29 26 7 18 12 28 55 43 18 53 60 50 13 28 11 13 24 15 17 17 13 16 20 29 17 32 14 15 11 13 35 31 26 47 63 77 80
49 47 46 44 46 36 28 18 15 8 8 10 12 10 47 30 12 36 71 52 22 14 15 19 20 21 19 31 14 26 16 24 22 32 14 6 10 19 16 17 22 42 74 84 88
50 46 49 40 48 25 7 9 2 9 15 13 11 12 15 22 23 43 60 64 32 11 8 20 33 16 22 34 18 28 10 12 10 9 4 22 13 8 21 51 41 36 64 74 86
56 47 50 47 43 22 27 18 8 8 10 13 9 11 21 15 19 13 34 26 30 13 17 8 34 21 22 13 15 8 12 4 4 2 12 16 15 23 42 49 37 45 70 82 91
63 49 47 48 38 29 17 7 10 20 31 12 20 29 8 6 18 20 16 26 22 10 6 18 24 31 12 21 22 16 20 13 13 6 10 16 14 22 34 73 67 67 87 87 85
64 52 50 36 25 31 24 7 18 14 6 7 14 14 9 6 6 22 22 33 34 22 28 12 16 16 22 23 22 18 8 20 15 2 7 7 15 13 13 32 43 55 64 77 84
66 58 37 12 28 44 5 14 14 8 15 17 3 8 16 11 13 20 23 27 34 27 18 16 9 16 29 12 13 30 15 6 7 13 8 9 9 12 9 24 25 28 52 75 80
48 29 13 14 37 27 8 15 13 26 37 9 9 18 26 32 27 22 31 25 48 40 24 24 10 27 3 12 21 4 6 9 12 11 12 6 13 14 30 33 35 36 61 63 84
21 8 24 45 9 9 6 10 11 18 39 20 15 30 26 35 43 35 44 35 66 48 24 20 14 27 36 24 16 17 19 14 12 9 3 11 13 11 26 26 45 49 64 71 88
41 19 27 33 6 7 12 17 18 19 21 14 18 30 29 31 32 20 16 22 41 52 40 22 12 16 17 13 5 14 12 13 11 9 14 12 11 3 8 7 39 48 58 61 67
14 8 10 12 24 2 10 14 18 24 22 30 38 43 31 32 17 10 12 12 22 53 82 35 12 21 27 17 10 13 14 15 16 11 12 12 10 7 12 19 18 53 63 57 56
10 9 10 8 7 17 5 11 24 27 19 18 20 7 14 16 12 7 10 14 4 31 43 24 19 14 19 37 19 28 23 18 12 18 18 16 22 20 22 25 42 64 57 52 58
12 11 16 19 30 10 10 5 17 27 13 11 8 16 20 6 12 6 4 6 6 17 15 13 14 19 32 15 17 14 18 27 13 10 3 12 13 21 42 48 44 65 67 62 55
15 18 9 16 11 9 2 17 30 34 11 6 6 8 6 11 41 33 35 19 16 9 9 21 14 10 17 14 13 8 4 13 6 9 12 13 23 19 11 16 40 47 50 46 34
Wind_Direction_850mb
338 338 338 339 339 341 338 336 334 334 333 333 329 326 322 307 294 282 267 253 256 237 236 241 262 270 276 268 211 144 100 237 224 163 193 165 126 150 137 137 154 197 155 149 153
335 334 333 334 336 336 336 334 331 331 331 332 330 328 326 317 299 280 280 255 235 219 228 236 249 242 262 248 203 178 138 199 231 179 145 143 135 143 133 148 120 125 139 156 159
331 331 330 329 331 332 332 332 330 327 327 330 326 328 321 322 312 288 264 227 202 207 218 230 243 265 241 237 230 219 224 160 205 148 134 122 120 131 136 143 146 152 152 161 163
326 327 327 326 326 328 328 327 327 324 324 327 323 324 317 317 282 248 2 204 188 196 210 226 245 226 265 276 265 139 213 153 180 149 139 157 125 102 156 159 153 148 156 162 165
322 323 323 322 322 323 324 323 322 321 321 324 321 320 316 293 268 237 12 182 183 194 209 222 246 246 241 262 336 204 120 160 153 146 136 135 101 108 122 143 148 148 154 161 165
321 320 320 320 318 318 320 321 318 318 317 320 320 313 305 277 316 214 195 200 200 200 211 216 214 227 286 275 27 143 139 149 142 133 130 118 132 104 139 144 151 156 160 173 177
323 322 319 318 317 314 315 318 315 315 313 312 313 301 286 272 286 228 199 229 223 215 217 221 227 254 297 326 358 141 132 130 150 150 130 105 79 127 150 151 153 162 169 174 174
322 322 320 319 316 312 311 315 312 312 311 305 299 287 268 294 215 197 207 220 219 224 231 228 236 272 272 281 309 141 122 135 216 143 159 104 147 135 151 153 161 166 174 178 185
323 320 319 319 318 312 309 314 312 311 309 311 283 268 270 254 227 203 208 209 210 217 223 234 266 264 272 99 358 322 153 138 161 239 139 110 143 165 160 160 166 177 183 184 189
321 320 316 317 319 313 309 316 314 309 315 346 263 296 260 227 260 200 209 210 213 205 236 248 241 166 41 89 229 226 109 162 170 177 109 139 172 167 173 171 176 182 188 189 193
320 318 315 316 317 314 313 326 340 317 317 284 278 266 280 279 306 218 197 204 214 209 183 233 123 216 233 198 208 217 133 175 195 152 126 158 161 176 177 183 191 188 191 193 195
320 317 314 313 314 310 306 308 355 316 301 287 279 276 271 273 281 260 196 211 194 196 173 303 215 228 227 212 231 234 201 198 217 164 116 167 172 181 181 195 193 189 187 185 187
319 318 315 312 313 306 292 310 324 327 256 279 260 249 252 250 242 253 201 211 151 192 201 184 239 227 218 267 280 285 203 199 186 146 69 128 179 189 204 201 204 199 189 185 188
318 318 317 315 311 304 312 275 313 320 322 283 231 239 229 225 266 230 214 206 206 200 193 199 245 238 232 244 179 268 215 220 161 160 159 176 206 243 197 198 202 190 186 188 191
316 316 316 316 300 301 308 306 305 320 322 252 237 265 196 170 233 206 192 198 200 178 138 228 216 225 237 237 176 241 214 199 168 176 110 185 104 213 137 213 212 199 197 194 198
314 313 309 306 289 314 342 318 203 46 254 289 201 177 112 170 231 176 186 205 218 186 209 211 247 182 221 248 218 245 254 52 55 96 133 205 154 249 188 209 210 216 202 197 200
310 311 301 290 281 283 302 322 62 175 306 273 33 22 177 170 222 167 183 193 205 167 218 294 237 244 213 237 273 168 67 305 342 120 205 192 190 234 207 217 204 198 198 200 204
311 311 295 277 277 259 244 72 208 226 227 279 344 327 267 174 220 217 174 197 222 134 168 216 251 225 214 189 221 210 158 158 200 250 251 141 212 246 200 207 205 200 197 200 198
316 315 296 286 247 214 193 181 205 204 232 323 11 305 260 252 226 210 183 206 211 176 206 172 245 262 223 221 166 237 147 188 138 70 68 259 299 329 205 195 185 187 189 196 198
326 322 307 300 203 183 135 234 227 205 323 329 185 243 281 291 319 209 203 195 207 194 168 219 271 242 253 192 248 190 174 96 0 164 202 281 259 230 199 181 194 189 187 193 197
329 320 301 288 169 169 200 231 267 267 285 258 233 268 274 288 281 277 222 219 196 209 166 195 142 262 55 213 208 78 128 62 121 138 162 224 268 217 199 184 186 200 208 190 195
349 319 319 165 133 194 217 228 238 264 285 288 284 266 269 294 300 274 219 201 194 203 198 196 175 236 248 249 229 164 172 147 139 228 153 159 264 263 183 184 183 202 208 207 201
329 281 205 213 258 256 276 272 268 268 251 254 256 266 277 281 284 239 206 217 223 198 201 195 209 236 303 331 357 162 165 141 108 91 184 140 255 138 53 125 180 185 207 212 213
308 318 309 216 278 342 5 287 285 286 270 280 283 276 288 275 256 279 277 264 209 203 205 175 146 194 224 214 183 194 162 161 142 142 173 203 188 162 183 178 186 183 174 184 193
244 252 5 318 312 324 260 270 293 307 285 277 293 46 342 274 290 329 324 324 283 218 211 160 181 155 213 223 211 203 184 160 153 181 168 217 183 208 192 181 181 177 176 180 188
309 356 334 294 288 289 273 282 324 308 258 278 260 351 346 354 320 315 342 333 307 328 234 177 216 153 227 229 212 163 210 161 153 132 72 160 213 196 197 176 176 178 182 185 199
316 307 320 285 306 316 21 330 308 316 317 51 321 332 17 320 309 272 269 255 243 279 299 153 140 119 214 158 117 74 119 215 244 73 200 169 220 160 163 185 174 172 172 161 158